GW2929 Weather Reports


Display with metric or nautical units.
time (UTC)temp
F
wind
direction
speed
MPH
gust
MPH
rain 1hr
in
rain 24hr
in
rain mn
in
humidity
%
barometer
mb
20260509182844 90 247 1.0 2.0 0.00 0.00 0.00 61 1004.3
20260509182342 89 229 0.0 0.0 0.00 0.00 0.00 64 1004.2
20260509181839 89 197 3.0 3.0 0.00 0.00 0.00 62 1004.3
20260509181336 89 200 0.0 1.0 0.00 0.00 0.00 59 1004.3
20260509180833 88 234 1.0 1.0 0.00 0.00 0.00 62 1004.5
20260509180329 89 235 0.0 1.0 0.00 0.00 0.00 62 1004.7
20260509175826 88 219 1.0 1.0 0.00 0.00 0.00 64 1004.5
20260509175322 88 233 0.0 0.0 0.00 0.00 0.00 65 1004.7
20260509174818 88 227 1.0 1.0 0.00 0.00 0.00 64 1004.8
20260509174314 88 237 1.0 1.0 0.00 0.00 0.00 64 1004.8
20260509173810 88 236 1.0 1.0 0.00 0.00 0.00 63 1004.8
20260509173306 87 229 0.0 0.0 0.00 0.00 0.00 63 1004.8
20260509172802 86 252 2.0 3.0 0.00 0.00 0.00 65 1004.9
20260509172259 85 228 0.0 0.0 0.00 0.00 0.00 67 1005.0
20260509171755 86 212 1.0 2.0 0.00 0.00 0.00 68 1005.1
20260509171251 86 205 1.0 1.0 0.00 0.00 0.00 69 1005.0
20260509170747 86 204 0.0 1.0 0.00 0.00 0.00 67 1005.0
20260509170243 86 207 0.0 0.0 0.00 0.00 0.00 65 1005.3
20260509165742 86 189 2.0 2.0 0.00 0.00 0.00 66 1005.3
20260509165238 86 209 0.0 1.0 0.00 0.00 0.00 68 1005.2
20260509164734 84 212 1.0 1.0 0.00 0.00 0.00 71 1005.4
20260509164229 85 212 1.0 1.0 0.00 0.00 0.00 70 1005.4
20260509163727 84 225 0.0 1.0 0.00 0.00 0.00 72 1005.5
20260509163223 84 235 1.0 1.0 0.00 0.00 0.00 71 1005.8
20260509162721 83 221 0.0 0.0 0.00 0.00 0.00 74 1005.6
20260509162216 82 224 0.0 1.0 0.00 0.00 0.00 73 1005.6
20260509161712 82 228 0.0 0.0 0.00 0.00 0.00 75 1005.6
20260509161209 82 221 1.0 2.0 0.00 0.00 0.00 73 1005.7
20260509160704 82 220 2.0 2.0 0.00 0.00 0.00 76 1005.7
20260509160200 81 242 1.0 1.0 0.00 0.00 0.00 79 1005.9
20260509155656 79 223 0.0 1.0 0.00 0.00 0.00 80 1006.0
20260509155152 78 222 0.0 0.0 0.00 0.00 0.00 82 1005.7
20260509154648 77 223 0.0 0.0 0.00 0.00 0.00 86 1005.5
20260509154146 77 232 1.0 1.0 0.00 0.00 0.00 86 1005.2
20260509153642 77 222 0.0 0.0 0.00 0.00 0.00 87 1005.2
20260509153139 76 218 0.0 0.0 0.00 0.00 0.00 89 1005.0
20260509152634 75 215 0.0 0.0 0.00 0.00 0.00 94 1005.2
20260509152132 73 214 0.0 0.0 0.00 0.00 0.00 98 1005.0
20260509151628 72 214 0.0 0.0 0.00 0.00 0.00 99 1005.1
20260509151126 72 217 0.0 0.0 0.00 0.00 0.00 99 1004.8
20260509150624 71 215 0.0 0.0 0.00 0.00 0.00 99 1004.9
20260509150122 72 214 0.0 0.0 0.00 0.00 0.00 99 1004.8
20260509145617 71 217 0.0 0.0 0.00 0.00 0.00 99 1005.0
20260509145113 71 212 0.0 0.0 0.00 0.00 0.00 99 1004.6
20260509144610 71 213 0.0 0.0 0.00 0.00 0.00 99 1004.8
20260509144107 70 209 0.0 0.0 0.00 0.00 0.00 99 1004.9
20260509143604 70 207 0.0 0.0 0.00 0.00 0.00 99 1004.7
20260509143102 70 207 0.0 0.0 0.00 0.00 0.00 99 1004.2
20260509142556 70 210 0.0 0.0 0.00 0.00 0.00 99 1004.1
20260509142053 70 214 0.0 0.0 0.00 0.00 0.00 99 1004.1
20260509141549 69 206 0.0 0.0 0.00 0.00 0.00 99 1004.1
20260509141046 69 217 0.0 0.0 0.00 0.00 0.00 99 1004.0
20260509140543 69 213 0.0 0.0 0.00 0.00 0.00 99 1004.4
20260509140041 69 213 0.0 0.0 0.00 0.00 0.00 99 1004.6
20260509135538 69 213 0.0 0.0 0.00 0.00 0.00 99 1004.3
20260509135035 69 81 1.0 2.0 0.00 0.00 0.00 99 1003.7
20260509134532 69 202 1.0 3.0 0.00 0.00 0.00 99 1003.7
20260509134030 69 104 3.0 4.0 0.00 0.00 0.00 99 1003.7
20260509133526 69 203 2.0 2.0 0.00 0.00 0.00 99 1003.5
20260509133024 68 161 2.0 4.0 0.00 0.00 0.00 99 1003.0
20260509132522 68 153 3.0 4.0 0.00 0.00 0.00 99 1002.8
20260509132020 68 197 3.0 3.0 0.00 0.00 0.00 99 1003.5
20260509131516 69 344 3.0 7.0 0.00 0.00 0.00 99 1003.1
20260509131013 68 320 7.0 14.0 0.00 0.00 0.00 99 1002.5
20260509130508 68 321 4.0 8.0 0.00 0.00 0.00 99 1003.5
20260509130006 68 322 3.0 3.0 0.00 0.00 0.00 99 1003.9
20260509125502 68 322 3.0 6.0 0.00 0.00 0.00 99 1004.3
20260509124958 68 322 3.0 3.0 0.00 0.00 0.00 99 1004.7
20260509124455 69 322 5.0 8.0 0.00 0.00 0.00 99 1005.0
20260509123952 70 322 4.0 6.0 0.00 0.00 0.00 99 1005.1
20260509123450 71 322 2.0 2.0 0.00 0.00 0.00 99 1005.4
20260509122945 72 322 2.0 7.0 0.00 0.00 0.00 99 1005.5
20260509122443 72 322 2.0 3.0 0.00 0.00 0.00 99 1005.6
20260509121939 72 322 1.0 1.0 0.00 0.00 0.00 99 1005.8
20260509121436 72 321 0.0 1.0 0.00 0.00 0.00 99 1005.6
20260509120934 71 321 3.0 6.0 0.00 0.00 0.00 99 1005.5
20260509120432 70 321 0.0 1.0 0.00 0.00 0.00 99 1005.8
20260509115930 70 320 0.0 0.0 0.00 0.00 0.00 99 1006.0
20260509115427 70 320 0.0 0.0 0.00 0.00 0.00 99 1006.1
20260509114924 70 320 2.0 2.0 0.00 0.00 0.00 99 1005.5
20260509114423 70 320 0.0 0.0 0.00 0.00 0.00 99 1005.4
20260509113922 71 320 1.0 4.0 0.00 0.00 0.00 99 1005.2
20260509113419 71 320 0.0 1.0 0.00 0.00 0.00 99 1006.1
20260509112916 72 320 1.0 2.0 0.00 0.00 0.00 99 1006.6
20260509112413 72 320 0.0 0.0 0.00 0.00 0.00 99 1006.7
20260509111910 72 308 0.0 0.0 0.00 0.00 0.00 99 1006.8
20260509111407 73 307 0.0 0.0 0.00 0.00 0.00 99 1006.9
20260509110904 72 266 0.0 0.0 0.00 0.00 0.00 99 1007.0
20260509110400 73 255 1.0 1.0 0.00 0.00 0.00 99 1007.2
20260509105859 73 234 0.0 0.0 0.00 0.00 0.00 99 1006.9
20260509105356 75 223 0.0 1.0 0.00 0.00 0.00 99 1006.9
20260509104853 76 245 1.0 1.0 0.00 0.00 0.00 99 1006.8
20260509104349 76 231 1.0 2.0 0.00 0.00 0.00 99 1007.0
20260509103847 76 226 0.0 0.0 0.00 0.00 0.00 99 1006.7
20260509103344 77 221 0.0 0.0 0.00 0.00 0.00 99 1006.7
20260509102843 77 223 0.0 0.0 0.00 0.00 0.00 99 1006.6
20260509102340 77 220 0.0 0.0 0.00 0.00 0.00 99 1006.5
20260509101835 77 220 0.0 0.0 0.00 0.00 0.00 99 1006.6
20260509101332 77 217 0.0 0.0 0.00 0.00 0.00 99 1006.8
20260509100830 77 215 0.0 0.0 0.00 0.00 0.00 99 1006.7
20260509100327 77 217 0.0 0.0 0.00 0.00 0.00 99 1006.2
20260509095823 77 218 0.0 0.0 0.00 0.00 0.00 99 1005.8
20260509095321 77 220 0.0 0.0 0.00 0.00 0.00 99 1005.5
20260509094818 77 220 0.0 0.0 0.00 0.00 0.00 99 1005.3
20260509094314 77 217 0.0 0.0 0.00 0.00 0.00 99 1005.0
20260509093812 76 217 0.0 0.0 0.00 0.00 0.00 99 1004.7
20260509093309 77 218 0.0 0.0 0.00 0.00 0.00 99 1004.2
20260509092808 77 218 0.0 0.0 0.00 0.00 0.00 99 1003.9
20260509092306 77 221 0.0 0.0 0.00 0.00 0.00 99 1003.6
20260509091803 77 232 0.0 0.0 0.00 0.00 0.00 99 1003.3
20260509091259 77 224 0.0 0.0 0.00 0.00 0.00 99 1003.1
20260509090757 77 211 0.0 0.0 0.00 0.00 0.00 99 1003.1
20260509090254 77 213 0.0 0.0 0.00 0.00 0.00 99 1002.9
20260509085751 77 200 0.0 0.0 0.00 0.00 0.00 99 1002.9
20260509085249 77 213 0.0 0.0 0.00 0.00 0.00 99 1002.9
20260509084745 77 212 0.0 0.0 0.00 0.00 0.00 99 1003.0
20260509084242 77 167 0.0 0.0 0.00 0.00 0.00 99 1003.1
20260509083740 77 232 0.0 0.0 0.00 0.00 0.00 99 1003.0
20260509083236 77 210 0.0 0.0 0.00 0.00 0.00 99 1003.5
20260509082733 77 207 0.0 0.0 0.00 0.00 0.00 99 1003.4
20260509082229 77 210 0.0 0.0 0.00 0.00 0.00 99 1003.6
20260509081727 77 215 0.0 0.0 0.00 0.00 0.00 99 1003.6
20260509081224 77 207 0.0 0.0 0.00 0.00 0.00 99 1003.6
20260509080722 77 209 0.0 0.0 0.00 0.00 0.00 99 1003.8
20260509080219 77 204 0.0 0.0 0.00 0.00 0.00 99 1003.8
20260509075718 77 206 0.0 0.0 0.00 0.00 0.00 99 1004.0
20260509075215 77 182 0.0 0.0 0.00 0.00 0.00 99 1004.2
20260509074711 77 205 0.0 0.0 0.00 0.00 0.00 99 1003.9
20260509074209 77 213 0.0 0.0 0.00 0.00 0.00 99 1004.2
20260509073705 77 210 0.0 0.0 0.00 0.00 0.00 99 1004.2
20260509073202 77 208 0.0 0.0 0.00 0.00 0.00 99 1004.4
20260509072658 77 206 0.0 0.0 0.00 0.00 0.00 99 1004.5
20260509072155 77 214 0.0 0.0 0.00 0.00 0.00 99 1004.3
20260509071652 77 216 0.0 0.0 0.00 0.00 0.00 99 1004.2
20260509071149 77 211 0.0 0.0 0.00 0.00 0.00 99 1004.5
20260509070646 77 203 0.0 0.0 0.00 0.00 0.00 99 1004.3
20260509070142 77 212 0.0 0.0 0.00 0.00 0.00 99 1004.2
20260509065638 77 209 0.0 0.0 0.00 0.00 0.00 99 1004.0
20260509065134 77 201 0.0 0.0 0.00 0.00 0.00 99 1004.3
20260509064631 77 162 0.0 1.0 0.00 0.00 0.00 98 1004.2
20260509064129 77 216 0.0 0.0 0.00 0.00 0.00 98 1004.4
20260509063625 77 272 0.0 0.0 0.00 0.00 0.00 98 1004.7
20260509063117 77 207 0.0 0.0 0.00 0.00 0.00 98 1005.0
20260509062614 77 230 0.0 1.0 0.00 0.00 0.00 98 1004.6
20260509062111 77 217 0.0 0.0 0.00 0.00 0.00 98 1003.8
20260509061608 77 358 0.0 1.0 0.00 0.00 0.00 98 1003.8
20260509061105 78 224 0.0 1.0 0.00 0.00 0.00 98 1003.9
20260509060603 78 23 0.0 0.0 0.00 0.00 0.00 97 1004.2
20260509060058 78 268 0.0 0.0 0.00 0.00 0.00 97 1004.3
20260509055554 78 246 0.0 0.0 0.00 0.00 0.00 97 1004.3
20260509055050 78 269 0.0 0.0 0.00 0.00 0.00 97 1004.6
20260509054547 78 201 0.0 0.0 0.00 0.00 0.00 97 1004.9
20260509054045 78 202 0.0 0.0 0.00 0.00 0.00 97 1004.9
20260509053543 78 148 0.0 0.0 0.00 0.00 0.00 97 1004.9
20260509053040 78 194 0.0 0.0 0.00 0.00 0.00 97 1004.9
20260509052538 78 200 0.0 0.0 0.00 0.00 0.00 97 1004.8
20260509052035 78 215 0.0 0.0 0.00 0.00 0.00 97 1004.7
20260509051533 78 233 0.0 0.0 0.00 0.00 0.00 97 1004.5
20260509051030 78 158 1.0 2.0 0.00 0.00 0.00 97 1004.5
20260509050527 78 211 0.0 0.0 0.00 0.00 0.00 97 1004.3
20260509050023 78 206 0.0 0.0 0.00 0.00 0.00 96 1004.6
20260509045520 78 192 0.0 1.0 0.00 0.00 0.00 96 1004.7
20260509045017 78 215 0.0 0.0 0.00 0.00 0.00 96 1004.8
20260509044515 78 213 0.0 0.0 0.00 0.00 0.00 96 1004.7
20260509044013 78 208 0.0 0.0 0.00 0.00 0.00 96 1004.9
20260509043508 78 212 0.0 0.0 0.00 0.00 0.00 96 1005.0
20260509043005 78 211 0.0 0.0 0.00 0.00 0.00 95 1004.7
20260509042501 78 208 0.0 0.0 0.00 0.00 0.00 95 1004.7
20260509041956 78 220 1.0 1.0 0.00 0.00 0.00 95 1004.4
20260509041454 78 211 0.0 0.0 0.00 0.00 0.00 95 1004.5
20260509040952 78 238 1.0 1.0 0.00 0.00 0.00 95 1004.5
20260509040449 78 200 0.0 0.0 0.00 0.00 0.00 95 1004.7
20260509035946 78 207 0.0 0.0 0.00 0.00 0.00 95 1004.8
20260509035443 78 214 0.0 0.0 0.00 0.00 0.00 95 1004.6
20260509034939 78 206 0.0 0.0 0.00 0.00 0.00 95 1004.4
20260509034437 78 82 1.0 3.0 0.00 0.00 0.00 95 1004.5
20260509033934 78 200 1.0 2.0 0.00 0.00 0.00 95 1004.3
20260509033431 78 184 0.0 1.0 0.00 0.00 0.00 95 1004.6
20260509032928 78 186 1.0 1.0 0.00 0.00 0.00 95 1004.3
20260509032425 78 194 0.0 0.0 0.00 0.00 0.00 95 1004.0
20260509031923 78 190 2.0 4.0 0.00 0.00 0.00 95 1003.7
20260509031420 78 197 0.0 0.0 0.00 0.00 0.00 95 1003.7
20260509030917 78 208 0.0 0.0 0.00 0.00 0.00 95 1003.5
20260509030415 78 179 2.0 2.0 0.00 0.00 0.00 95 1003.4
20260509025912 78 189 0.0 0.0 0.00 0.00 0.00 95 1003.2
20260509025408 79 198 0.0 0.0 0.00 0.00 0.00 95 1003.3
20260509024903 78 200 0.0 0.0 0.00 0.00 0.00 95 1003.3
20260509024359 78 166 3.0 4.0 0.00 0.00 0.00 95 1003.3
20260509023856 78 192 1.0 2.0 0.00 0.00 0.00 95 1003.2
20260509023354 79 193 0.0 0.0 0.00 0.00 0.00 95 1003.2
20260509022850 79 201 0.0 0.0 0.00 0.00 0.00 95 1003.2
20260509022347 79 204 0.0 0.0 0.00 0.00 0.00 95 1002.8
20260509021844 79 202 0.0 0.0 0.00 0.00 0.00 95 1002.7
20260509021341 79 201 0.0 0.0 0.00 0.00 0.00 95 1002.7
20260509020839 79 130 1.0 1.0 0.00 0.00 0.00 95 1002.4
20260509020337 79 196 0.0 0.0 0.00 0.00 0.00 95 1002.5
20260509015834 79 202 0.0 1.0 0.00 0.00 0.00 95 1002.5
20260509015332 79 198 0.0 0.0 0.00 0.00 0.00 95 1002.4
20260509014829 79 145 1.0 2.0 0.00 0.00 0.00 94 1002.6
20260509014326 79 196 0.0 0.0 0.00 0.00 0.00 94 1002.3
20260509013822 79 208 0.0 1.0 0.00 0.00 0.00 94 1002.0
20260509013319 79 168 2.0 3.0 0.00 0.00 0.00 94 1002.0
20260509012815 79 162 1.0 2.0 0.00 0.00 0.00 94 1002.0
20260509012312 79 198 1.0 1.0 0.00 0.00 0.00 94 1002.0
20260509011809 79 210 2.0 3.0 0.00 0.00 0.00 94 1001.9
20260509011306 79 197 2.0 2.0 0.00 0.00 0.00 93 1002.1
20260509010804 80 200 0.0 0.0 0.00 0.00 0.00 93 1001.9
20260509010301 79 197 1.0 1.0 0.00 0.00 0.00 93 1001.7
20260509005758 80 182 1.0 2.0 0.00 0.00 0.00 93 1001.7
20260509005256 80 190 1.0 1.0 0.00 0.00 0.00 93 1001.7
20260509004755 80 196 0.0 0.0 0.00 0.00 0.00 93 1001.7
20260509004253 80 173 1.0 2.0 0.00 0.00 0.00 93 1001.8
20260509003751 80 196 0.0 0.0 0.00 0.00 0.00 93 1001.8
20260509003248 80 181 2.0 3.0 0.00 0.00 0.00 93 1001.9
20260509002745 80 182 1.0 2.0 0.00 0.00 0.00 92 1002.1
20260509002243 80 194 0.0 0.0 0.00 0.00 0.00 92 1002.0
20260509001740 80 210 0.0 0.0 0.00 0.00 0.00 92 1001.7
20260509001236 80 187 1.0 2.0 0.00 0.00 0.00 92 1001.8
20260509000734 80 203 0.0 0.0 0.00 0.00 0.00 92 1002.0
20260509000231 80 194 0.0 1.0 0.00 0.00 0.00 92 1001.7
20260508235728 80 189 1.0 1.0 0.00 0.00 0.00 91 1002.0
20260508235224 81 143 3.0 4.0 0.00 0.00 0.00 91 1002.0
20260508234721 80 200 0.0 0.0 0.00 0.00 0.00 92 1002.0
20260508234217 81 180 1.0 2.0 0.00 0.00 0.00 92 1001.9
20260508233712 81 167 3.0 4.0 0.00 0.00 0.00 91 1001.7
20260508233209 81 154 3.0 3.0 0.00 0.00 0.00 91 1001.6
20260508232706 81 210 2.0 3.0 0.00 0.00 0.00 91 1001.7
20260508232203 81 200 2.0 3.0 0.00 0.00 0.00 90 1001.8
20260508231701 81 181 2.0 3.0 0.00 0.00 0.00 90 1001.9
20260508231157 81 145 2.0 2.0 0.00 0.00 0.00 90 1001.6
20260508230654 81 204 4.0 6.0 0.00 0.00 0.00 90 1001.7
20260508230150 81 195 1.0 1.0 0.00 0.00 0.00 90 1001.8
20260508225648 82 146 2.0 3.0 0.00 0.00 0.00 90 1001.6
20260508225144 82 195 0.0 1.0 0.00 0.00 0.00 89 1001.7
20260508224642 82 177 3.0 4.0 0.00 0.00 0.00 88 1001.8
20260508224140 83 198 1.0 1.0 0.00 0.00 0.00 88 1001.8
20260508223637 82 159 2.0 3.0 0.00 0.00 0.00 88 1001.9
20260508223134 83 197 3.0 3.0 0.00 0.00 0.00 88 1001.9
20260508222631 83 165 3.0 3.0 0.00 0.00 0.00 87 1002.2
20260508222128 83 88 3.0 4.0 0.00 0.00 0.00 87 1002.3
20260508221625 83 181 2.0 3.0 0.00 0.00 0.00 87 1002.2
20260508221120 84 195 1.0 2.0 0.00 0.00 0.00 86 1002.5
20260508220617 84 202 2.0 3.0 0.00 0.00 0.00 86 1002.4
20260508220114 84 131 5.0 6.0 0.00 0.00 0.00 85 1002.6
20260508215611 84 194 0.0 1.0 0.00 0.00 0.00 86 1002.5
20260508215107 84 96 4.0 6.0 0.00 0.00 0.00 86 1002.5
20260508214605 84 172 5.0 6.0 0.00 0.00 0.00 84 1002.6
20260508214101 85 113 2.0 2.0 0.00 0.00 0.00 84 1002.6
20260508213558 85 181 3.0 6.0 0.00 0.00 0.00 84 1002.7
20260508213054 85 186 3.0 6.0 0.00 0.00 0.00 83 1002.7
20260508212551 85 178 2.0 3.0 0.00 0.00 0.00 84 1002.8
20260508212047 85 185 2.0 3.0 0.00 0.00 0.00 83 1003.0
20260508211543 85 205 1.0 2.0 0.00 0.00 0.00 83 1003.1
20260508211039 85 196 2.0 2.0 0.00 0.00 0.00 83 1002.8
20260508210536 85 190 2.0 3.0 0.00 0.00 0.00 83 1002.9
20260508210034 86 175 4.0 7.0 0.00 0.00 0.00 82 1003.0
20260508205530 86 188 1.0 1.0 0.00 0.00 0.00 82 1002.9
20260508205026 86 163 1.0 2.0 0.00 0.00 0.00 82 1002.9
20260508204524 87 177 3.0 4.0 0.00 0.00 0.00 81 1003.3
20260508204019 87 184 3.0 4.0 0.00 0.00 0.00 80 1003.2
20260508203515 87 189 1.0 1.0 0.00 0.00 0.00 80 1003.3
20260508203012 89 205 1.0 2.0 0.00 0.00 0.00 77 1003.1
20260508202509 90 205 1.0 1.0 0.00 0.00 0.00 77 1003.3
20260508202006 89 204 0.0 1.0 0.00 0.00 0.00 76 1003.5
20260508201502 89 208 1.0 1.0 0.00 0.00 0.00 76 1003.3
20260508200959 89 212 1.0 2.0 0.00 0.00 0.00 78 1003.5
20260508200456 89 28 2.0 3.0 0.00 0.00 0.00 77 1003.6
20260508195950 88 257 2.0 3.0 0.00 0.00 0.00 78 1003.5
20260508195448 89 194 2.0 3.0 0.00 0.00 0.00 77 1003.6
20260508194944 88 197 1.0 1.0 0.00 0.00 0.00 79 1003.6
20260508194442 88 195 2.0 3.0 0.00 0.00 0.00 80 1003.7
20260508193938 87 225 1.0 2.0 0.00 0.00 0.00 81 1004.0
20260508193435 86 162 2.0 3.0 0.00 0.00 0.00 83 1004.0
20260508192932 86 238 1.0 1.0 0.00 0.00 0.00 83 1004.2
20260508192429 86 207 1.0 2.0 0.00 0.00 0.00 83 1004.0
20260508191925 85 130 2.0 3.0 0.00 0.00 0.00 85 1004.3
20260508191423 86 156 2.0 3.0 0.00 0.00 0.00 83 1004.3
20260508190920 87 173 3.0 6.0 0.00 0.00 0.00 82 1004.3
20260508190417 86 182 3.0 4.0 0.00 0.00 0.00 81 1004.4
20260508185913 86 314 2.0 2.0 0.00 0.00 0.00 82 1004.5
20260508185410 88 189 2.0 3.0 0.00 0.00 0.00 80 1004.6
20260508184908 87 203 1.0 1.0 0.00 0.00 0.00 79 1004.7
20260508184405 88 30 4.0 6.0 0.00 0.00 0.00 79 1004.7
20260508183901 89 179 3.0 6.0 0.00 0.00 0.00 77 1004.6
20260508183358 88 77 2.0 3.0 0.00 0.00 0.00 78 1004.8
20260508182853 87 227 0.0 1.0 0.00 0.00 0.00 79 1004.7